RH
100 100 100 100 100 96 96 100 90 68 74 28 23 24 22 47 76 94 100 100 100 100 100 100 100 100 100
100 100 100 100 100 100 78 66 63 68 28 23 23 28 56 70 88 100 100 100 100 100 100 100 100 100 100
100 100 100 91 48 57 50 54 64 32 22 23 37 63 74 88 99 100 100 100 100 100 100 100 100 100 100
100 76 44 46 47 38 47 50 38 22 23 40 71 83 86 98 99 100 100 100 100 100 100 100 100 100 100
58 37 35 26 28 49 32 28 22 26 45 69 90 93 98 100 100 100 100 100 100 100 100 100 100 100 100
34 27 22 25 31 24 21 22 27 51 78 85 92 94 100 100 100 100 100 100 100 100 100 100 100 100 100
17 18 23 20 19 19 20 26 56 77 88 91 93 99 100 100 100 100 100 100 100 100 100 100 100 100 100
19 22 17 18 19 20 27 57 77 85 91 92 99 100 100 100 100 100 100 100 100 100 100 100 100 100 100
20 17 17 19 20 24 50 76 89 91 99 100 100 100 100 100 100 100 100 100 100 100 100 100 100 100 100
16 16 18 20 23 48 64 82 92 97 100 100 100 100 100 100 100 100 100 100 100 100 100 100 100 100 100
16 17 19 24 48 64 78 88 95 100 100 100 100 100 100 100 100 100 100 100 100 100 100 100 100 100 99
18 19 26 47 62 75 85 91 100 100 100 100 100 99 100 100 100 100 98 100 100 100 100 100 100 100 99
20 27 46 60 77 82 86 97 100 100 100 100 100 100 100 100 100 100 98 100 100 98 96 95 97 97 96
26 46 58 76 83 83 94 99 100 100 100 100 100 100 100 99 95 100 100 100 100 100 100 100 100 96 88
41 54 74 79 81 85 95 97 100 100 100 100 100 100 100 99 100 100 100 100 100 100 100 96 84 76 70
47 67 80 82 82 89 91 94 99 100 100 100 100 100 97 99 100 100 100 100 100 99 94 84 62 41 34
55 75 81 83 81 92 95 95 100 100 100 100 98 99 100 100 100 100 100 100 100 91 61 40 35 33 32
Wind_Speed
121 122 124 127 127 122 121 119 112 97 80 71 65 58 52 46 45 49 50 53 58 67 75 79 79 84 84
124 127 128 130 125 124 116 110 92 74 68 62 53 48 44 42 44 45 49 51 51 56 63 66 70 74 80
129 130 128 124 120 115 102 84 70 66 57 48 43 41 40 39 38 39 41 48 51 52 53 56 60 65 70
128 124 122 115 108 92 77 67 62 55 46 41 37 38 36 34 35 36 38 43 47 50 53 55 59 61 63
124 119 106 94 83 71 65 57 50 44 39 35 35 35 33 32 32 34 37 39 43 47 50 52 54 57 60
104 97 83 76 69 62 54 46 41 37 34 34 33 33 31 31 32 34 36 38 41 44 46 47 51 53 55
80 76 71 67 59 50 43 39 35 33 33 33 30 30 30 31 33 34 34 36 38 41 44 46 49 53 56
71 67 63 54 47 40 37 33 30 32 33 32 29 29 30 30 30 32 32 32 33 35 39 42 45 48 51
66 60 53 45 39 36 33 30 30 32 31 30 30 30 30 29 29 29 30 30 31 32 34 37 40 43 46
56 49 42 39 36 32 30 29 31 34 31 30 29 30 29 28 28 29 29 30 31 31 33 36 38 41 43
46 40 37 33 29 28 28 29 31 32 30 30 30 30 29 30 30 31 31 31 31 32 33 35 36 39 40
38 34 30 28 27 27 27 29 30 31 30 29 30 30 30 32 34 33 33 32 31 32 33 34 35 37 38
32 29 26 26 26 27 28 30 30 28 28 30 29 28 28 31 33 34 32 32 31 31 31 32 35 37 39
28 26 26 26 27 28 30 31 31 29 29 28 27 28 30 32 31 30 28 28 28 29 30 32 34 36 36
27 27 27 27 28 29 30 30 31 29 29 27 26 27 28 28 26 26 26 26 26 28 29 32 33 30 29
27 28 28 29 30 31 31 30 29 27 26 27 28 28 26 24 23 24 24 25 25 28 28 27 26 26 28
28 29 31 32 32 32 30 30 30 29 27 29 27 25 24 23 23 23 23 24 25 25 24 23 24 25 26
Wind_Direction
300 301 302 302 303 301 302 301 300 299 295 293 288 282 276 272 259 249 244 237 234 235 238 239 238 237 240
303 302 303 302 301 298 300 299 298 295 293 290 282 275 272 266 256 248 242 233 232 232 233 237 241 242 241
301 302 301 297 298 300 298 296 295 293 289 281 273 269 267 262 252 243 238 237 232 230 230 233 237 239 240
300 298 299 297 297 296 295 295 292 288 280 272 264 262 260 253 246 241 237 235 230 229 230 232 235 235 236
298 297 296 296 296 295 296 291 286 280 272 263 257 257 253 250 244 239 238 235 233 231 230 231 233 237 239
297 295 295 295 295 293 289 284 279 269 259 253 253 253 253 250 247 243 241 239 237 236 237 237 238 236 237
296 295 295 296 291 285 282 278 267 254 248 248 249 250 247 246 245 245 243 241 242 242 240 240 240 241 243
297 296 294 290 283 278 275 264 250 245 244 243 248 246 244 243 242 243 242 240 240 239 241 242 243 243 246
295 294 288 281 277 272 261 249 241 240 240 240 243 244 244 243 239 241 242 242 242 242 242 242 244 246 247
291 285 280 276 270 257 248 239 234 235 234 235 238 241 243 245 240 241 243 243 244 244 245 247 248 250 251
284 278 275 268 254 245 238 231 228 233 232 234 238 239 239 241 242 244 247 248 250 250 250 252 254 257 258
276 272 263 251 245 238 229 228 232 230 232 234 237 239 239 241 245 247 250 253 256 256 257 258 259 260 261
268 259 250 242 235 230 227 226 232 232 233 234 238 241 243 243 246 251 254 257 258 260 260 260 261 262 262
255 245 238 231 226 226 225 226 230 234 235 238 242 243 243 243 247 251 254 255 256 258 261 263 263 263 265
240 234 229 227 224 223 222 226 229 235 235 236 240 240 239 241 244 247 250 253 257 260 261 262 265 267 269
234 230 226 225 224 225 227 230 231 231 230 231 234 235 237 238 241 247 251 256 259 262 260 261 265 268 271
231 227 225 225 227 229 231 231 230 226 228 231 232 233 234 236 241 249 253 256 254 252 255 263 270 275 277